Date,TemperatureHighF,TemperatureAvgF,TemperatureLowF,DewpointHighF,DewpointAvgF,DewpointLowF,HumidityHigh,HumidityAvg,HumidityLow,PressureMaxIn,PressureMinIn,WindSpeedMaxMPH,WindSpeedAvgMPH,GustSpeedMaxMPH,PrecipitationSumIn
2013-1-1,25,19,16,-100,-100,-100,0,0,100,0.00,40.00,0,0,0,0.00
2013-1-2,27,22,18,-100,-100,-100,0,0,100,0.00,40.00,0,0,0,0.00
2013-1-3,29,25,22,-100,-100,-100,0,0,100,0.00,40.00,0,0,0,0.00
2013-1-4,35,28,20,-100,-100,-100,0,0,100,0.00,40.00,0,0,0,0.00
2013-1-5,40,31,22,-100,-100,-100,0,0,100,0.00,40.00,0,0,0,0.00
2013-1-6,32,29,19,-100,-100,-100,0,0,100,0.00,40.00,0,0,0,0.00
2013-1-7,39,31,21,-100,-100,-100,0,0,100,0.00,40.00,0,0,0,0.00
2013-1-8,42,35,28,-100,-100,-100,0,0,100,0.00,40.00,0,0,0,0.00
2013-1-9,42,37,31,-100,-100,-100,0,0,100,0.00,40.00,0,0,0,0.00
2013-1-10,45,36,27,-100,-100,-100,0,0,100,0.00,40.00,0,0,0,0.00
2013-1-11,44,40,35,-100,-100,-100,0,0,100,0.00,40.00,0,0,0,0.00
2013-1-12,46,41,31,-100,-100,-100,0,0,100,0.00,40.00,0,0,0,0.00
2013-1-13,25,22,18,-100,-100,-100,0,0,100,0.00,40.00,0,0,0,0.00
2013-1-14,26,18,12,-100,-100,-100,0,0,100,0.00,40.00,20,2,24,0.00
2013-1-15,31,22,11,-100,-100,-100,0,0,100,0.00,40.00,0,0,0,0.00
2013-1-16,31,27,24,-100,-100,-100,0,0,100,0.00,40.00,22,2,26,0.00
2013-1-17,23,16,11,-100,-100,-100,0,0,100,0.00,40.00,1,0,6,0.00
2013-1-18,32,20,10,-100,-100,-100,0,0,100,0.00,40.00,0,0,0,0.00
2013-1-19,40,28,17,-100,-100,-100,0,0,100,0.00,40.00,0,0,0,0.00
2013-1-20,19,12,5,-100,-100,-100,0,0,100,0.00,40.00,0,0,0,0.00
2013-1-21,6,0,-8,-100,-100,-100,0,0,100,0.00,40.00,0,0,0,0.00
2013-1-22,9,-1,-9,-100,-100,-100,0,0,100,0.00,40.00,0,0,0,0.00
2013-1-23,11,5,-3,-100,-100,-100,0,0,100,0.00,40.00,31,5,36,0.00
2013-1-24,19,10,4,-100,-100,-100,0,0,100,0.00,40.00,26,5,31,0.00
2013-1-25,24,14,4,-100,-100,-100,0,0,100,0.00,40.00,0,0,0,0.00
2013-1-26,44,18,5,-100,-100,-100,0,0,100,0.00,40.00,0,0,0,0.00
2013-1-27,36,30,23,-100,-100,-100,0,0,100,0.00,40.00,0,0,0,0.00
2013-1-28,36,34,32,-100,-100,-100,0,0,100,0.00,40.00,0,0,0,0.00
2013-1-29,44,37,33,-100,-100,-100,0,0,100,0.00,40.00,0,0,0,0.00
2013-1-30,33,26,15,-100,-100,-100,0,0,100,0.00,40.00,0,0,0,0.00
2013-1-31,19,14,7,-100,-100,-100,0,0,100,0.00,40.00,0,0,0,0.00
2013-2-1,13,6,1,-100,-100,-100,0,0,100,0.00,40.00,0,0,0,0.00
2013-2-2,24,8,1,-100,-100,-100,0,0,100,0.00,40.00,0,0,0,0.00
2013-2-3,22,10,4,-100,-100,-100,0,0,100,0.00,40.00,0,0,0,0.00
2013-2-4,30,11,5,-100,-100,-100,0,0,100,0.00,40.00,0,0,0,0.00
2013-2-5,28,16,6,-100,-100,-100,0,0,100,0.00,40.00,0,0,6,0.00
2013-2-6,29,17,5,-100,-100,-100,0,0,100,0.00,40.00,0,0,0,0.00
2013-2-7,34,26,18,-100,-100,-100,0,0,100,0.00,40.00,0,0,0,0.00
2013-2-8,31,21,11,-100,-100,-100,0,0,100,0.00,40.00,0,0,0,0.00
2013-2-9,28,17,-2,-100,-100,-100,0,0,100,0.00,40.00,0,0,0,0.00
2013-2-10,42,33,24,-100,-100,-100,0,0,100,0.00,40.00,0,0,0,0.00
2013-2-11,40,34,28,-100,-100,-100,0,0,100,0.00,40.00,2,0,9,0.00
2013-2-12,29,26,21,-100,-100,-100,0,0,100,0.00,40.00,3,0,9,0.00
2013-2-13,37,30,21,-100,-100,-100,0,0,100,0.00,40.00,0,0,0,0.00
2013-2-14,33,29,19,-100,-100,-100,0,0,100,0.00,40.00,11,0,16,0.00
2013-2-15,28,18,12,-100,-100,-100,0,0,100,0.00,40.00,0,0,0,0.00
2013-2-16,26,12,1,-100,-100,-100,0,0,100,0.00,40.00,15,0,18,0.00
2013-2-17,26,10,-2,-100,-100,-100,0,0,100,0.00,40.00,0,0,0,0.00
2013-2-18,41,34,20,-100,-100,-100,0,0,100,0.00,40.00,0,0,0,0.00
2013-2-19,32,20,10,-100,-100,-100,0,0,100,0.00,40.00,17,1,19,0.00
2013-2-20,24,15,9,-100,-100,-100,0,0,100,0.00,40.00,0,0,0,0.00
2013-2-21,27,22,11,-100,-100,-100,0,0,100,0.00,40.00,4,0,23,0.00
2013-2-22,32,28,24,-100,-100,-100,0,0,100,0.00,40.00,17,2,24,0.00
2013-2-23,39,27,19,-100,-100,-100,0,0,100,0.00,40.00,0,0,0,0.00
2013-2-24,45,30,24,-100,-100,-100,0,0,100,0.00,40.00,0,0,0,0.00
2013-2-25,45,30,17,-100,-100,-100,0,0,100,0.00,40.00,0,0,0,0.00
2013-2-26,42,33,29,-100,-100,-100,0,0,100,0.00,40.00,17,4,27,0.00
2013-2-27,36,32,29,-100,-100,-100,0,0,100,0.00,40.00,9,0,29,0.00
2013-2-28,31,29,25,-100,-100,-100,0,0,100,0.00,40.00,0,0,0,0.00
2013-3-1,31,23,14,-100,-100,-100,0,0,100,0.00,40.00,20,1,27,0.00
2013-3-2,34,20,4,-100,-100,-100,0,0,100,0.00,40.00,0,0,0,0.00
2013-3-3,39,15,1,-100,-100,-100,0,0,100,0.00,40.00,1,0,5,0.00
2013-3-4,36,20,5,-100,-100,-100,0,0,100,0.00,40.00,0,0,0,0.00
2013-3-5,37,24,10,-100,-100,-100,0,0,100,0.00,40.00,5,0,13,0.00
2013-3-6,35,30,25,-100,-100,-100,0,0,100,0.00,40.00,0,0,0,0.00
2013-3-7,42,22,9,-100,-100,-100,0,0,100,0.00,40.00,7,0,13,0.00
2013-3-8,51,31,13,-100,-100,-100,0,0,100,0.00,40.00,0,0,0,0.00
2013-3-9,40,35,27,-100,-100,-100,0,0,100,0.00,40.00,0,0,0,0.00
2013-3-10,39,35,32,-100,-100,-100,0,0,100,0.00,40.00,4,0,20,0.00
2013-3-11,36,33,28,-100,-100,-100,0,0,100,0.00,40.00,0,0,7,0.00
2013-3-12,32,27,21,-100,-100,-100,0,0,100,0.00,40.00,0,0,0,0.00
2013-3-13,37,27,20,-100,-100,-100,0,0,100,0.00,40.00,0,0,0,0.00
2013-3-14,40,30,20,-100,-100,-100,0,0,100,0.00,40.00,0,0,0,0.00
2013-3-15,37,30,19,-100,-100,-100,0,0,100,0.00,40.00,6,1,17,0.00
2013-3-16,37,25,19,-100,-100,-100,0,0,100,0.00,40.00,3,0,12,0.00
2013-3-17,32,22,12,-100,-100,-100,0,0,100,0.00,40.00,0,0,0,0.00
2013-3-18,36,29,23,-100,-100,-100,0,0,100,0.00,40.00,8,0,20,0.00
2013-3-19,34,25,16,-100,-100,-100,0,0,100,0.00,40.00,0,0,0,0.00
2013-3-20,32,20,9,-100,-100,-100,0,0,100,0.00,40.00,0,0,0,0.00
2013-3-21,35,25,16,-100,-100,-100,0,0,100,0.00,40.00,0,0,0,0.00
2013-3-22,38,26,12,-100,-100,-100,0,0,100,0.00,40.00,0,0,0,0.00
2013-3-23,41,32,26,-100,-100,-100,0,0,100,0.00,40.00,0,0,0,0.00
2013-3-24,40,32,27,-100,-100,-100,0,0,100,0.00,40.00,18,1,25,0.00
2013-3-25,41,32,27,-100,-100,-100,0,0,100,0.00,40.00,17,0,23,0.00
2013-3-26,44,34,29,-100,-100,-100,0,0,100,0.00,40.00,0,0,0,0.00
2013-3-27,62,38,25,-100,-100,-100,0,0,100,0.00,40.00,0,0,0,0.00
2013-3-28,61,37,26,-100,-100,-100,0,0,100,0.00,40.00,0,0,0,0.00
2013-3-29,60,41,24,-100,-100,-100,0,0,100,0.00,40.00,0,0,0,0.00
2013-3-30,43,37,32,-100,-100,-100,0,0,100,0.00,40.00,0,0,0,0.00
2013-3-31,48,36,28,-100,-100,-100,0,0,100,0.00,40.00,0,0,0,0.00
2013-4-1,36,28,21,-100,-100,-100,0,0,100,0.00,40.00,0,0,0,0.00
2013-4-2,41,29,19,-100,-100,-100,0,0,100,0.00,40.00,0,0,0,0.00
2013-4-3,42,32,21,-100,-100,-100,0,0,100,0.00,40.00,0,0,0,0.00
2013-4-4,49,38,32,-100,-100,-100,0,0,100,0.00,40.00,1,0,6,0.00
2013-4-5,42,32,26,-100,-100,-100,0,0,100,0.00,40.00,0,0,0,0.00
2013-4-6,43,37,30,-100,-100,-100,0,0,100,0.00,40.00,0,0,0,0.00
2013-4-7,48,38,33,-100,-100,-100,0,0,100,0.00,40.00,0,0,0,0.00
2013-4-8,39,36,34,-100,-100,-100,0,0,100,0.00,40.00,0,0,0,0.00
2013-4-9,39,35,33,-100,-100,-100,0,0,100,0.00,40.00,0,0,0,0.00
2013-4-10,43,36,30,-100,-100,-100,0,0,100,0.00,40.00,4,0,13,0.00
2013-4-11,38,33,29,-100,-100,-100,0,0,100,0.00,40.00,21,6,39,0.00
2013-4-12,38,32,26,-100,-100,-100,0,0,100,0.00,40.00,18,5,28,0.00
2013-4-13,48,34,27,-100,-100,-100,0,0,100,0.00,40.00,0,0,0,0.00
2013-4-14,46,33,20,-100,-100,-100,0,0,100,0.00,40.00,2,0,16,0.00
2013-4-15,60,45,34,-100,-100,-100,0,0,100,0.00,40.00,13,0,20,0.00
2013-4-16,58,41,32,-100,-100,-100,0,0,100,0.00,40.00,0,0,0,0.00
2013-4-17,44,37,29,-100,-100,-100,0,0,100,0.00,40.00,2,0,16,0.00
2013-4-18,46,38,34,-100,-100,-100,0,0,100,0.00,40.00,1,0,9,0.00
2013-4-19,47,36,26,-100,-100,-100,0,0,100,0.00,40.00,0,0,0,0.00
2013-4-20,48,32,23,-100,-100,-100,0,0,100,0.00,40.00,0,0,0,0.00
2013-4-21,42,36,30,-100,-100,-100,0,0,100,0.00,40.00,0,0,0,0.00
2013-4-22,51,41,37,-100,-100,-100,0,0,100,0.00,40.00,0,0,0,0.00
2013-4-23,45,38,34,-100,-100,-100,0,0,100,0.00,40.00,0,0,0,0.00
2013-4-24,59,41,32,-100,-100,-100,0,0,100,0.00,40.00,0,0,0,0.00
2013-4-25,56,43,35,-100,-100,-100,0,0,100,0.00,40.00,0,0,0,0.00
2013-4-26,54,44,36,-100,-100,-100,0,0,100,0.00,40.00,0,0,0,0.00
2013-4-27,63,56,49,-100,-100,-100,0,0,100,0.00,40.00,0,0,0,0.00
2013-4-28,67,52,42,-100,-100,-100,0,0,100,0.00,40.00,0,0,0,0.00
2013-4-29,58,48,43,-100,-100,-100,0,0,100,0.00,40.00,0,0,0,0.00
2013-4-30,64,56,47,-100,-100,-100,0,0,100,0.00,40.00,0,0,3,0.00
2013-5-1,69,55,40,-100,-100,-100,0,0,100,0.00,40.00,20,1,25,0.00
2013-5-2,48,40,35,-100,-100,-100,0,0,100,0.00,40.00,27,8,30,0.00
2013-5-3,49,40,34,-100,-100,-100,0,0,100,0.00,40.00,19,0,25,0.00
2013-5-4,63,48,39,-100,-100,-100,0,0,100,0.00,40.00,14,1,22,0.00
2013-5-5,67,50,39,-100,-100,-100,0,0,100,0.00,40.00,0,0,0,0.00
2013-5-6,60,48,39,-100,-100,-100,0,0,100,0.00,40.00,1,0,6,0.00
2013-5-7,65,52,39,-100,-100,-100,0,0,100,0.00,40.00,0,0,0,0.00
2013-5-8,82,63,42,-100,-100,-100,0,0,100,0.00,40.00,0,0,0,0.00
2013-5-9,62,50,37,-100,-100,-100,0,0,100,0.00,40.00,8,0,20,0.00
2013-5-10,51,40,36,-100,-100,-100,0,0,100,0.00,40.00,18,1,29,0.00
2013-5-11,47,40,34,-100,-100,-100,0,0,100,0.00,40.00,0,0,0,0.00
2013-5-12,44,38,34,-100,-100,-100,0,0,100,0.00,40.00,0,0,0,0.00
2013-5-13,55,44,35,-100,-100,-100,0,0,100,0.00,40.00,0,0,0,0.00
2013-5-14,61,49,38,-100,-100,-100,0,0,100,0.00,40.00,0,0,0,0.00
2013-5-15,76,59,41,-100,-100,-100,0,0,100,0.00,40.00,0,0,0,0.00
2013-5-16,68,52,46,-100,-100,-100,0,0,100,0.00,40.00,11,0,18,0.00
2013-5-17,60,49,43,-100,-100,-100,0,0,100,0.00,40.00,0,0,0,0.00
2013-5-18,67,56,50,-100,-100,-100,0,0,100,0.00,40.00,0,0,0,0.00
2013-5-19,78,62,51,-100,-100,-100,0,0,100,0.00,40.00,0,0,0,0.00
2013-5-20,77,63,54,-100,-100,-100,0,0,100,0.00,40.00,0,0,0,0.00
2013-5-21,68,57,48,-100,-100,-100,0,0,100,0.00,40.00,0,0,0,0.00
2013-5-22,53,50,47,-100,-100,-100,0,0,100,0.00,40.00,1,0,6,0.00
2013-5-23,49,44,40,-100,-100,-100,0,0,100,0.00,40.00,27,2,36,0.00
2013-5-24,59,47,37,-100,-100,-100,0,0,100,0.00,40.00,0,0,0,0.00
2013-5-25,64,52,39,-100,-100,-100,0,0,100,0.00,40.00,0,0,0,0.00
2013-5-26,67,54,42,-100,-100,-100,0,0,100,0.00,40.00,0,0,0,0.00
2013-5-27,68,56,44,-100,-100,-100,0,0,100,0.00,40.00,0,0,0,0.00
2013-5-28,56,51,48,-100,-100,-100,0,0,100,0.00,40.00,0,0,0,0.00
2013-5-29,67,57,47,-100,-100,-100,0,0,100,0.00,40.00,0,0,0,0.00
2013-5-30,75,65,56,-100,-100,-100,0,0,100,0.00,40.00,0,0,0,0.00
2013-5-31,71,61,53,-100,-100,-100,0,0,100,0.00,40.00,0,0,0,0.00
2013-6-1,77,60,48,-100,-100,-100,0,0,100,0.00,40.00,0,0,0,0.00
2013-6-2,61,48,42,-100,-100,-100,0,0,100,0.00,40.00,0,0,0,0.00
2013-6-3,68,52,42,-100,-100,-100,0,0,100,0.00,40.00,0,0,0,0.00
2013-6-4,59,52,44,-100,-100,-100,0,0,100,0.00,40.00,0,0,0,0.00
2013-6-5,58,52,48,-100,-100,-100,0,0,100,0.00,40.00,0,0,0,0.00
2013-6-6,62,53,47,-100,-100,-100,0,0,100,0.00,40.00,1,0,8,0.00
2013-6-7,72,57,48,-100,-100,-100,0,0,100,0.00,40.00,0,0,0,0.00
2013-6-8,72,58,51,-100,-100,-100,0,0,100,0.00,40.00,0,0,0,0.00
2013-6-9,74,64,52,-100,-100,-100,0,0,100,0.00,40.00,0,0,0,0.00
2013-6-10,75,63,55,-100,-100,-100,0,0,100,0.00,40.00,0,0,0,0.00
2013-6-11,79,61,53,-100,-100,-100,0,0,100,0.00,40.00,0,0,0,0.00
2013-6-12,77,61,53,-100,-100,-100,0,0,100,0.00,40.00,0,0,0,0.00
2013-6-13,66,62,55,-100,-100,-100,0,0,100,0.00,40.00,19,2,25,0.00
2013-6-14,70,58,51,-100,-100,-100,0,0,100,0.00,40.00,0,0,0,0.00
2013-6-15,67,60,56,-100,-100,-100,0,0,100,0.00,40.00,0,0,0,0.00
2013-6-16,77,66,58,-100,-100,-100,0,0,100,0.00,40.00,0,0,0,0.00
2013-6-17,66,60,51,-100,-100,-100,0,0,100,0.00,40.00,1,0,6,0.00
2013-6-18,70,59,49,-100,-100,-100,0,0,100,0.00,40.00,0,0,0,0.00
2013-6-19,72,62,49,-100,-100,-100,0,0,100,0.00,40.00,0,0,0,0.00
2013-6-20,80,64,59,-100,-100,-100,0,0,100,0.00,40.00,0,0,0,0.00
2013-6-22,70,65,61,-100,-100,-100,0,0,100,0.00,40.00,0,0,0,0.00
2013-6-23,79,68,58,-100,-100,-100,0,0,100,0.00,40.00,0,0,0,0.00
2013-6-24,83,74,69,-100,-100,-100,0,0,100,0.00,40.00,0,0,3,0.00
2013-6-25,81,73,65,-100,-100,-100,0,0,100,0.00,40.00,0,0,0,0.00
2013-6-26,79,70,62,-100,-100,-100,0,0,100,0.00,40.00,3,0,12,0.00
2013-6-27,76,67,62,-100,-100,-100,0,0,100,0.00,40.00,0,0,0,0.00
2013-6-28,74,67,60,-100,-100,-100,0,0,100,0.00,40.00,4,0,19,0.00
2013-6-29,72,65,60,-100,-100,-100,0,0,100,0.00,40.00,7,0,16,0.00
2013-6-30,78,68,59,-100,-100,-100,0,0,100,0.00,40.00,0,0,1,0.00
2013-7-1,76,67,56,-100,-100,-100,0,0,100,0.00,40.00,1,0,6,0.00
2013-7-2,76,64,51,-100,-100,-100,0,0,100,0.00,40.00,1,0,6,0.00
2013-7-3,78,66,57,-100,-100,-100,0,0,100,0.00,40.00,0,0,0,0.00
2013-7-4,76,70,63,-100,-100,-100,0,0,100,0.00,40.00,0,0,0,0.00
2013-7-5,81,73,64,-100,-100,-100,0,0,100,0.00,40.00,0,0,0,0.00
2013-7-6,84,76,69,-100,-100,-100,0,0,100,0.00,40.00,0,0,0,0.00
2013-7-7,82,74,69,-100,-100,-100,0,0,100,0.00,40.00,0,0,0,0.00
2013-7-8,80,69,65,-100,-100,-100,0,0,100,0.00,40.00,1,0,6,0.00
2013-7-9,77,67,64,-100,-100,-100,0,0,100,0.00,40.00,0,0,0,0.00
2013-7-10,78,70,66,-100,-100,-100,0,0,100,0.00,40.00,0,0,0,0.00
2013-7-11,76,69,63,-100,-100,-100,0,0,100,0.00,40.00,1,0,6,0.00
2013-7-12,82,69,62,-100,-100,-100,0,0,100,0.00,40.00,0,0,0,0.00
2013-7-13,81,70,63,-100,-100,-100,0,0,100,0.00,40.00,0,0,0,0.00
2013-7-14,85,75,65,-100,-100,-100,0,0,100,0.00,40.00,0,0,0,0.00
2013-7-15,88,75,69,-100,-100,-100,0,0,100,0.00,40.00,0,0,0,0.00
2013-7-16,90,79,71,-100,-100,-100,0,0,100,0.00,40.00,0,0,0,0.00
2013-7-17,91,83,77,-100,-100,-100,0,0,100,0.00,40.00,0,0,0,0.00
2013-7-18,92,82,77,-100,-100,-100,0,0,100,0.00,40.00,0,0,0,0.00
2013-7-19,89,81,69,-100,-100,-100,0,0,100,0.00,40.00,0,0,0,0.00
2013-7-20,76,69,58,-100,-100,-100,0,0,100,0.00,40.00,1,0,8,0.00
2013-7-21,70,63,55,-100,-100,-100,0,0,100,0.00,40.00,0,0,0,0.00
2013-7-22,80,71,61,-100,-100,-100,0,0,100,0.00,40.00,0,0,0,0.00
2013-7-23,74,65,61,-100,-100,-100,0,0,100,0.00,40.00,17,0,22,0.00
2013-7-24,74,65,57,-100,-100,-100,0,0,100,0.00,40.00,0,0,0,0.00
2013-7-25,76,68,60,-100,-100,-100,0,0,100,0.00,40.00,0,0,0,0.00
2013-7-26,71,64,56,-100,-100,-100,0,0,100,0.00,40.00,0,0,0,0.00
2013-7-27,67,57,53,-100,-100,-100,0,0,100,0.00,40.00,1,0,4,0.00
2013-7-28,61,57,53,-100,-100,-100,0,0,100,0.00,40.00,0,0,0,0.00
2013-7-29,70,59,53,-100,-100,-100,0,0,100,0.00,40.00,0,0,0,0.00
2013-7-30,75,63,56,-100,-100,-100,0,0,100,0.00,40.00,0,0,0,0.00
2013-7-31,77,68,61,-100,-100,-100,0,0,100,0.00,40.00,0,0,0,0.00
2013-8-1,79,67,62,-100,-100,-100,0,0,100,0.00,40.00,0,0,0,0.00
2013-8-2,81,68,60,-100,-100,-100,0,0,100,0.00,40.00,6,0,9,0.00
2013-8-3,78,65,59,-100,-100,-100,0,0,100,0.00,40.00,1,0,6,0.00
2013-8-4,74,63,58,-100,-100,-100,0,0,100,0.00,40.00,0,0,0,0.00
2013-8-5,69,62,56,-100,-100,-100,0,0,100,0.00,40.00,0,0,0,0.00
2013-8-6,78,68,61,-100,-100,-100,0,0,100,0.00,40.00,0,0,0,0.00
2013-8-7,76,65,57,-100,-100,-100,0,0,100,0.00,40.00,0,0,0,0.00
2013-8-8,76,61,54,-100,-100,-100,0,0,100,0.00,40.00,0,0,0,0.00
2013-8-9,79,69,59,-100,-100,-100,0,0,100,0.00,40.00,0,0,0,0.00
2013-8-10,75,63,56,-100,-100,-100,0,0,100,0.00,40.00,0,0,0,0.00
2013-8-11,76,67,62,-100,-100,-100,0,0,100,0.00,40.00,0,0,0,0.00
2013-8-12,79,64,56,-100,-100,-100,0,0,100,0.00,40.00,20,1,26,0.00
2013-8-13,68,59,55,-100,-100,-100,0,0,100,0.00,40.00,21,1,25,0.00
2013-8-14,71,59,55,-100,-100,-100,0,0,100,0.00,40.00,9,0,13,0.00
2013-8-15,79,55,58,-100,-100,-100,0,0,100,0.00,40.00,0,0,0,0.00
2013-8-16,77,62,59,-100,-100,-100,0,0,100,0.00,40.00,0,0,0,0.00
2013-8-18,80,71,63,-100,-100,-100,0,0,100,0.00,40.00,0,0,0,0.00
2013-8-19,82,68,67,-100,-100,-100,0,0,100,0.00,40.00,0,0,0,0.00
2013-8-20,84,74,69,-100,-100,-100,0,0,100,0.00,40.00,0,0,0,0.00
2013-8-21,86,74,67,-100,-100,-100,0,0,100,0.00,40.00,0,0,0,0.00
2013-8-22,83,72,65,-100,-100,-100,0,0,100,0.00,40.00,1,0,9,0.00
2013-8-23,78,67,61,-100,-100,-100,0,0,100,0.00,40.00,0,0,0,0.00
2013-8-24,80,66,62,-100,-100,-100,0,0,100,0.00,40.00,0,0,0,0.00
2013-8-25,90,78,70,-100,-100,-100,0,0,100,0.00,40.00,0,0,0,0.00
2013-8-26,85,75,69,-100,-100,-100,0,0,100,0.00,40.00,0,0,0,0.00
2013-8-27,76,70,68,-100,-100,-100,0,0,100,0.00,40.00,0,0,0,0.00
2013-8-28,84,76,71,-100,-100,-100,0,0,100,0.00,40.00,0,0,0,0.00
2013-8-29,86,73,67,-100,-100,-100,0,0,100,0.00,40.00,0,0,0,0.00
2013-8-30,80,72,65,-100,-100,-100,0,0,100,0.00,40.00,25,0,29,0.00
2013-8-31,76,66,64,-100,-100,-100,0,0,100,0.00,40.00,0,0,0,0.00
2013-9-1,73,66,64,-100,-100,-100,0,0,100,0.00,40.00,0,0,0,0.00
2013-10-8,68,63,60,-100,-100,-100,0,0,100,0.00,40.00,26,20,33,0.00
2013-10-9,73,64,59,-100,-100,-100,0,0,100,0.00,40.00,22,16,27,0.00
2013-10-10,71,61,56,-100,-100,-100,0,0,100,0.00,40.00,14,7,16,0.00
2013-10-11,71,63,56,-100,-100,-100,0,0,100,0.00,40.00,15,8,22,0.00
2013-10-12,67,59,57,-100,-100,-100,0,0,100,0.00,40.00,29,17,38,0.00
2013-10-13,63,53,47,-100,-100,-100,0,0,100,0.00,40.00,18,6,22,0.00
2013-10-14,61,54,49,-100,-100,-100,0,0,100,0.00,40.00,10,6,14,0.00
2013-10-15,58,56,53,-100,-100,-100,0,0,100,0.00,40.00,16,9,18,0.00
2013-10-16,56,50,48,-100,-100,-100,0,0,100,0.00,40.00,26,18,32,0.00
2013-10-17,55,48,45,-100,-100,-100,0,0,100,0.00,40.00,15,8,18,0.00
2013-10-18,52,48,43,-100,-100,-100,0,0,100,0.00,40.00,23,10,27,0.00
2013-10-19,56,45,42,-100,-100,-100,0,0,100,0.00,40.00,23,12,26,0.00
2013-10-20,52,45,40,-100,-100,-100,0,0,100,0.00,40.00,17,10,22,0.00
2013-10-21,48,43,36,-100,-100,-100,0,0,100,0.00,40.00,31,22,37,0.00
2013-10-22,47,42,38,-100,-100,-100,0,0,100,0.00,40.00,30,23,37,0.00
2013-10-23,46,41,38,-100,-100,-100,0,0,100,0.00,40.00,32,21,36,0.00
2013-10-24,49,42,37,-100,-100,-100,0,0,100,0.00,40.00,27,22,31,0.00
2013-10-25,50,45,40,-100,-100,-100,0,0,100,0.00,40.00,30,20,42,0.00
2013-10-26,52,46,42,-100,-100,-100,0,0,100,0.00,40.00,31,24,41,0.00
2013-10-27,52,45,41,-100,-100,-100,0,0,100,0.00,40.00,27,15,37,0.00
2013-10-28,45,36,33,-100,-100,-100,0,0,100,0.00,40.00,28,11,39,0.00
2013-10-29,43,38,33,-100,-100,-100,0,0,100,0.00,40.00,10,3,12,0.00
2013-10-30,53,48,43,-100,-100,-100,0,0,100,0.00,40.00,17,7,21,0.00
2013-10-31,57,53,51,-100,-100,-100,0,0,100,0.00,40.00,16,5,18,0.00
2013-11-1,51,48,43,-100,-100,-100,0,0,100,0.00,40.00,26,19,31,0.00
2013-11-2,44,40,36,-100,-100,-100,0,0,100,0.00,40.00,16,9,21,0.00
2013-11-3,49,41,35,-100,-100,-100,0,0,100,0.00,40.00,19,7,29,0.00
2013-11-4,53,48,44,-100,-100,-100,0,0,100,0.00,40.00,30,21,43,0.00
2013-11-5,52,49,46,-100,-100,-100,0,0,100,0.00,40.00,18,10,23,0.00
2013-11-6,50,42,37,-100,-100,-100,0,0,100,0.00,40.00,31,23,37,0.00
2013-11-7,40,37,36,-100,-100,-100,0,0,100,0.00,40.00,26,21,32,0.00
2013-11-8,46,40,37,-100,-100,-100,0,0,100,0.00,40.00,30,16,38,0.00
2013-11-9,48,43,40,-100,-100,-100,0,0,100,0.00,40.00,32,24,41,0.00
2013-11-10,49,42,40,-100,-100,-100,0,0,100,0.00,40.00,31,22,37,0.00
2013-11-12,36,29,26,-100,-100,-100,0,0,100,0.00,40.00,33,21,41,0.00
2013-11-13,45,36,27,-100,-100,-100,0,0,100,0.00,40.00,27,21,35,0.00
2013-11-14,45,41,39,-100,-100,-100,0,0,100,0.00,40.00,20,16,27,0.00
2013-11-15,51,43,40,-100,-100,-100,0,0,100,0.00,40.00,16,12,20,0.00
2013-11-16,51,45,39,-100,-100,-100,0,0,100,0.00,40.00,33,22,50,0.00
2013-11-17,54,49,43,-100,-100,-100,0,0,100,0.00,40.00,36,17,43,0.00
2013-11-18,43,36,33,-100,-100,-100,0,0,100,0.00,40.00,36,30,45,0.00
2013-11-19,40,33,30,-100,-100,-100,0,0,100,0.00,40.00,22,11,26,0.00
2013-11-20,42,41,39,-100,-100,-100,0,0,100,0.00,40.00,29,18,36,0.00
2013-11-21,41,39,33,-100,-100,-100,0,0,100,0.00,40.00,24,11,33,0.00
2013-11-22,39,33,30,-100,-100,-100,0,0,100,0.00,40.00,34,24,42,0.00
2013-11-23,28,19,16,-100,-100,-100,0,0,100,0.00,40.00,38,30,46,0.00
2013-11-24,29,20,15,-100,-100,-100,0,0,100,0.00,40.00,31,19,37,0.00
2013-11-25,37,33,29,-100,-100,-100,0,0,100,0.00,40.00,31,22,41,0.00
2013-11-26,37,27,19,-100,-100,-100,0,0,100,0.00,40.00,32,22,39,0.00
2013-11-28,28,25,22,-100,-100,-100,0,0,100,0.00,40.00,25,10,28,0.00
2013-11-29,35,29,24,-100,-100,-100,0,0,100,0.00,40.00,15,9,19,0.00
2013-11-30,37,34,33,-100,-100,-100,0,0,100,0.00,40.00,20,9,24,0.00
2013-12-1,37,35,33,-100,-100,-100,0,0,100,0.00,40.00,16,10,19,0.00
2013-12-2,40,35,30,-100,-100,-100,0,0,100,0.00,40.00,11,4,16,0.00
2013-12-3,37,33,31,-100,-100,-100,0,0,100,0.00,40.00,16,10,28,0.00
2013-12-4,48,38,33,-100,-100,-100,0,0,100,0.00,40.00,25,11,33,0.00
2013-12-5,42,27,14,-100,-100,-100,0,0,100,0.00,40.00,29,26,37,0.00
2013-12-6,24,14,9,-100,-100,-100,0,0,100,0.00,40.00,24,19,33,0.00
2013-12-7,21,12,8,-100,-100,-100,0,0,100,0.00,40.00,24,19,28,0.00
2013-12-8,24,13,4,-100,-100,-100,0,0,100,0.00,40.00,20,9,22,0.00
2013-12-9,25,18,4,-100,-100,-100,0,0,100,0.00,40.00,31,18,38,0.00
2013-12-10,17,9,4,-100,-100,-100,0,0,100,0.00,40.00,26,20,30,0.00
2013-12-11,14,9,3,-100,-100,-100,0,0,100,0.00,40.00,26,22,33,0.00
2013-12-12,19,11,3,-100,-100,-100,0,0,100,0.00,40.00,21,17,27,0.00
2013-12-13,18,16,13,-100,-100,-100,0,0,100,0.00,40.00,21,12,29,0.00
2013-12-25,18,16,12,-100,-100,-100,0,0,100,0.00,40.00,20,13,25,0.00
2013-12-26,19,14,6,-100,-100,-100,0,0,100,0.00,40.00,15,6,18,0.00
2013-12-27,34,22,5,-100,-100,-100,0,0,100,0.00,40.00,21,9,25,0.00
2013-12-28,41,30,23,-100,-100,-100,0,0,100,0.00,40.00,12,4,13,0.00
2013-12-29,31,16,2,-100,-100,-100,0,0,100,0.00,40.00,36,25,46,0.00
2013-12-30,8,0,-6,-100,-100,-100,0,0,100,0.00,40.00,19,11,23,0.00
2013-12-31,12,1,-4,-100,-100,-100,0,0,100,0.00,40.00,22,16,26,0.00
2014-1-1,15,5,-4,-100,-100,-100,0,0,100,0.00,40.00,18,13,21,0.00
2014-1-2,18,8,2,-100,-100,-100,0,0,100,0.00,40.00,23,16,26,0.00